Portada
METAR-TAF:

METAR-TAF

Aeroports :

Danbury Municipal Airport

Danbury, Connecticut, Estats Units d'Amèrica

latitud: 41-22-18N, longitud: 073-29-04W, altitud: 139 m

Observació

L'informe es va fer fa 40 minuts, a les 19:53 UTC
Vent 13 kt del Sud-Oest amb ràfegues de 22 kt
Temperatura 11°C
Humitat 37%
Pressió 1013 hPa
Visibilitat: 16.1 km
Cel clar

METAR: KDXR 241953Z 22013G22KT 10SM CLR 11/M03 A2991 RMK AO2 SLP129 T01061028

Hora: 15:33 (20:33 UTC)


TAF: manca

Observacions i pronòstics meteorològics de més de 4000 aeroports (METAR i TAF).

Les estacions disponibles són els punts grocs i vermells al mapa.

Posi el ratolí al punt desitjat per veure el nom de l'estació.

Feu clic per veure les observacions i els pronòstics meteorològics.

Per canviar el mapa: feu clic els botons verds amb una creu de color negre per apropar; al botó verd amb un guió per allunyar la imatge; o en les fletxes verdes per a mapes adjacents.


METAR-TAF: